Вернуться в каталог

STARLINK-34993

АктивенСвязьSSO
NORAD 65389·PAYLOAD·🇺🇸 United States

Запущен Aug 30, 2025 с Vandenberg Space Force Base

Loading…

Ближайшие Пролёты (ближайшие 24 часа)

TLE

СвежийSource: CelesTrak SupGP

Эпоха: Sep 14, 2026, 14:54 UTC

1 65389C 25191L   26257.62131944  .00028829  00000+0  89479-3 0  2576
2 65389  97.2842 123.7396 0002031  87.4078  85.8028 15.33428554    18

Отслеживайте STARLINK-34993 в реальном времени с AllMySat

Download on the App Store